Location: Remedello Sotto
(45.2500°N, 10.3667°E)
Time: 04:33:50
(UTC+00:00)

Lacrosse 5 rocket - Pass Details

Date: 03 February 2023
Orbit: 455 x 612 km, 57.0° (Epoch: 29 March)

Event Time Altitude Azimuth Distance (km) Brightness Sun altitude
Rises 17:52:19 0° 313° (NW) 2,482 5.2 -15.1°
Reaches altitude 10° 17:54:30 10° 321° (NW) 1,615 4.1 -15.4°
Maximum altitude 17:57:57 41° 34° (NNE) 696 1.5 -16.0°
Enters shadow 17:58:45 35° 68° (ENE) 780 1.6 -16.2°
